Location: ?????????
(54.7630°N, 39.4991°E)
Time: 17:09:23
(UTC+00:00)

Cosmos 1400 Rocket - Pass Details

Date: 14 April 2026
Orbit: 474 x 505 km, 81.1° (Epoch: 16 May)

Event Time Altitude Azimuth Distance (km) Brightness Sun altitude
Exits shadow 18:18:41 27° 162° (SSE) 951 3.5 -15.0°
Maximum altitude 18:20:22 51° 99° (E) 605 2.7 -15.2°
Drops below altitude 10° 18:23:54 10° 22° (NNE) 1,659 5.5 -15.6°
Sets 18:26:02 0° 18° (NNE) 2,546 6.6 -15.8°
